EW6672 Weather Reports


Display with metric or nautical units.
time (UTC)temp
F
wind
direction
speed
MPH
gust
MPH
rain 1hr
in
rain 24hr
in
rain mn
in
humidity
%
barometer
mb
20190122020020 36 0 2.0 5.0 0.03 0.16 0.03 94 912.2
20190122015021 36 45 1.0 4.0 0.03 0.17 0.03 94 912.4
20190122014021 36 45 1.0 4.0 0.03 0.16 0.03 94 912.7
20190122013020 36 67 1.0 3.0 0.03 0.16 0.03 94 912.9
20190122012022 36 0 1.0 5.0 0.02 0.15 0.02 95 913.1
20190122011020 36 0 1.0 3.0 0.02 0.15 0.02 95 913.3
20190122010020 36 337 1.0 2.0 0.00 0.14 0.00 95 913.3
20190122005021 35 112 1.0 3.0 0.00 0.13 0.00 94 913.5
20190122004022 35 112 1.0 5.0 0.00 0.13 0.00 94 913.8
20190122003022 35 0.0 2.0 0.00 0.13 0.00 94 914.0
20190122002021 36 0 1.0 3.0 0.00 0.13 0.00 94 914.0
20190122001021 36 90 1.0 5.0 0.00 0.13 0.00 93 914.1
20190121145033 41 0.0 3.0 0.00 0.00 0.00 76 914.4
20190121144020 41 0.0 2.0 0.00 0.00 0.00 79 914.3
20190121143020 42 0.0 0.0 0.00 0.00 0.00 76 914.4
20190121142020 43 0.0 0.0 0.00 0.00 0.00 75 914.4
20190121141020 44 0.0 0.0 0.00 0.01 0.00 73 914.4
20190121140020 44 0.0 0.0 0.00 0.01 0.00 72 914.4
20190121135020 45 0.0 0.0 0.00 0.02 0.00 69 914.3
20190121134020 46 0.0 1.0 0.00 0.03 0.00 69 914.4
20190121133020 46 0.0 1.0 0.00 0.05 0.00 70 914.3
20190121132020 46 135 1.0 2.0 0.00 0.09 0.00 68 914.4
20190121131020 46 135 1.0 3.0 0.00 0.13 0.00 66 914.3
20190121130020 46 0.0 2.0 0.00 0.14 0.00 66 914.2
20190121125020 47 0.0 2.0 0.00 0.15 0.00 65 914.1
20190121124020 47 135 1.0 3.0 0.00 0.16 0.00 63 914.2
20190121123020 48 0.0 0.0 0.00 0.16 0.00 62 914.2
20190121122020 47 0.0 2.0 0.00 0.16 0.00 61 914.3
20190121121021 49 0.0 2.0 0.00 0.18 0.00 58 914.4
20190121120021 48 0.0 1.0 0.00 0.18 0.00 61 914.5
20190121115020 46 112 1.0 3.0 0.00 0.18 0.00 63 914.6
20190121114021 46 112 1.0 2.0 0.00 0.18 0.00 65 914.6
20190121113020 46 112 1.0 3.0 0.00 0.18 0.00 64 914.8
20190121112019 46 0.0 2.0 0.00 0.18 0.00 63 915.0
20190121111024 45 112 1.0 4.0 0.00 0.19 0.00 66 915.0
20190121110020 46 112 1.0 3.0 0.00 0.20 0.00 64 915.1
20190121105021 45 0.0 2.0 0.00 0.20 0.00 64 915.3
20190121104021 45 90 1.0 2.0 0.00 0.21 0.00 63 915.4
20190121103022 46 0.0 2.0 0.00 0.22 0.00 63 915.6
20190121102020 45 90 1.0 2.0 0.00 0.22 0.00 64 915.8
20190121101021 45 90 1.0 2.0 0.00 0.22 0.00 67 915.8
20190121100019 45 0.0 2.0 0.00 0.23 0.00 70 916.0
20190121095023 45 0.0 1.0 0.00 0.23 0.00 80 916.2
20190121094020 42 0.0 1.0 0.00 0.24 0.00 87 916.3
20190121093018 41 0.0 2.0 0.00 0.24 0.00 86 916.3
20190121092020 40 0.0 2.0 0.00 0.25 0.00 89 916.2
20190121091020 39 0.0 0.0 0.00 0.25 0.00 92 916.0
20190121090020 38 0.0 0.0 0.00 0.25 0.00 95 916.1
20190121085020 36 0.0 1.0 0.00 0.27 0.00 96 915.8
20190121084017 36 0.0 2.0 0.00 0.27 0.00 98 915.9
20190121083020 34 0.0 1.0 0.00 0.28 0.00 97 915.7
20190121082019 33 0.0 2.0 0.00 0.29 0.00 97 915.6
20190121081019 33 157 1.0 4.0 0.00 0.29 0.00 98 915.6
20190121080020 32 0.0 2.0 0.00 0.29 0.00 98 915.6
20190121075020 32 0.0 2.0 0.00 0.29 0.00 98 915.6
20190121074020 31 0.0 1.0 0.00 0.30 0.00 98 915.6
20190121073022 29 0.0 0.0 0.00 0.31 0.00 98 915.5
20190121072020 28 0.0 2.0 0.00 0.31 0.00 98 915.5
20190121071019 27 0.0 1.0 0.00 0.32 0.00 98 915.5
20190121070020 27 0.0 0.0 0.00 0.33 0.00 98 915.5
20190121065021 27 0.0 2.0 0.00 0.34 0.00 98 915.3
20190121064021 26 0.0 1.0 0.00 0.37 0.00 98 915.3
20190121063019 26 0.0 1.0 0.00 0.37 0.00 98 915.3
20190121062020 26 0.0 1.0 0.00 0.38 0.00 98 915.3
20190121061021 26 0.0 1.0 0.00 0.39 0.00 98 915.2
20190121060020 27 0.0 1.0 0.00 0.39 0.00 98 915.2
20190121055020 27 0.0 0.0 0.00 0.39 0.00 98 915.2
20190121054020 27 0.0 0.0 0.00 0.40 0.00 98 915.1
20190121053020 27 0.0 0.0 0.00 0.41 0.00 98 915.0
20190121052021 27 0.0 0.0 0.00 0.41 0.00 98 915.0
20190121051020 27 0.0 0.0 0.00 0.42 0.00 98 915.0
20190121050019 28 0.0 0.0 0.00 0.42 0.00 98 914.9
20190121045020 28 0.0 0.0 0.00 0.42 0.00 98 914.8
20190121044020 28 0.0 0.0 0.00 0.43 0.00 98 914.8
20190121043020 28 0.0 0.0 0.00 0.43 0.00 98 914.8
20190121042020 28 0.0 0.0 0.00 0.43 0.00 98 914.7
20190121041020 28 0.0 0.0 0.00 0.43 0.00 98 914.7
20190121040020 28 0.0 0.0 0.00 0.44 0.00 98 914.7
20190121035019 29 0.0 0.0 0.00 0.44 0.00 98 914.6
20190121034020 29 0.0 1.0 0.00 0.44 0.00 98 914.8
20190121033019 28 0.0 1.0 0.00 0.44 0.00 98 914.8
20190121032020 29 0.0 0.0 0.00 0.44 0.00 98 914.7
20190121031019 29 0.0 0.0 0.00 0.44 0.00 98 914.8
20190121030020 29 0.0 0.0 0.00 0.46 0.00 98 914.7
20190121025021 29 0.0 0.0 0.00 0.48 0.00 98 914.6
20190121024020 29 0.0 0.0 0.00 0.50 0.00 98 914.8
20190121023020 29 0.0 0.0 0.00 0.51 0.00 98 914.9
20190121022020 29 0.0 1.0 0.00 0.51 0.00 98 914.9
20190121021020 29 0.0 0.0 0.00 0.51 0.00 98 914.9